Regional Weather Roundup
Issued by NWS

Home | Current Version | Previous Version | Graphics & Text | Print | Product List | Glossary On
Versions: 1 2 3 4 5 6 7 8 9 10 11 12 13 14 15 16 17 18 19 20 21 22 23 24 25 26 27 28 29 30 31 32 33 34 35 36 37 38 39 40 41 42 43 44 45 46 47 48 49 50
000
ASUS44 KMEG 231410
RWRTN
TENNESSEE HOURLY STATE WEATHER ROUNDUP
NATIONAL WEATHER SERVICE MEMPHIS TN
900 AM CDT SUN JUL 23 2017

TNZ002-004-019-021-049-052-054-088>092-231500-
WEST TENNESSEE

CITY           SKY/WX    TMP DP  RH WIND       PRES   REMARKS
MEMPHIS INTL   PTSUNNY   83  75  77 SW6       29.95R HX  90
JACKSON        SUNNY     84  75  74 SW9       29.93F HX  92
SOMERVILLE       N/A     81  75  83 VRB6      29.94F
COVINGTON      SUNNY     82  75  78 SW7       29.92S
UNION CITY     PTSUNNY   82  75  78 NE5       29.92R
BOLIVAR        MOSUNNY   82  73  74 VRB3      29.95S
PARIS          MOSUNNY   81  68  65 N7G13     29.92S
HUNTINGDON     PTSUNNY   82  75  78 W5        29.92R
LEXINGTON      MOSUNNY   82  75  78 SW6       29.94F
SELMER         MOSUNNY   81  73  78 W6G13     29.96R
SAVANNAH       SUNNY     81  73  78 W6        29.96R
$$

TNZ008-025-027-028-033-062-065-066-231500-
NORTH MIDDLE TENNESSEE

CITY           SKY/WX    TMP DP  RH WIND       PRES   REMARKS
NASHVILLE      PTSUNNY   84  72  67 VRB5      29.96F
PORTLAND       SUNNY     82  75  78 SW6       29.93F
CLARKSVILLE    MOSUNNY   84  74  71 W6        29.92R HX  91
SMYRNA         CLOUDY    81  73  76 W5        29.97F
COOKEVILLE     SUNNY     81  73  78 S5        29.98S
GALLATIN       SUNNY     82  73  74 S7        29.96F
CROSSVILLE     PTSUNNY   78  71  79 W10       30.04R
$$

TNZ061-075-076-078-094-096-097-231500-
SOUTH MIDDLE TENNESSEE

CITY           SKY/WX    TMP DP  RH WIND       PRES   REMARKS
FAYETTEVILLE   SUNNY     82  75  78 SW5       29.98R
TULLAHOMA      SUNNY     82  73  74 SW7       30.00R
WINCHESTER     MOSUNNY   82  75  78 SW5       29.99S
MCMINNVILLE    PTSUNNY   81  79  94 W8        29.99S
COLUMBIA       MOSUNNY   82  73  74 VRB5      29.95R
SHELBYVILLE    SUNNY     82  75  78 CALM      29.97S
$$

TNZ017-018-042-046-047-231500-
NORTHEAST TENNESSEE

CITY           SKY/WX    TMP DP  RH WIND       PRES   REMARKS
TRI CITIES     CLOUDY    75  72  90 N3        29.98S THUNDER
ELIZABETHTON   CLOUDY    77  75  94 E5        29.97F FOG
$$

TNZ012-013-036-069-073-074-231500-
CENTRAL EAST TENNESSEE

CITY           SKY/WX    TMP DP  RH WIND       PRES   REMARKS
KNOXVILLE      CLOUDY    84  73  69 W12       29.96R HX  90
OAK RIDGE      MOSUNNY   82  73  74 VRB5      29.98R
DOWNTOWN KNOXV MOSUNNY   82  75  78 W8        29.95R
GATLINBURG     SUNNY     88  72  58 SW8       29.95R HX  94
MORRISTOWN     MOSUNNY   81  75  83 W8        29.97R
JACKSBORO      MOSUNNY   81  75  83 CALM      30.00R
$$

TNZ083-085-099-231500-
SOUTHEAST TENNESSEE

CITY           SKY/WX    TMP DP  RH WIND       PRES   REMARKS
CHATTANOOGA    PTSUNNY   84  73  69 VRB5      29.98R HX  90
DAYTON         SUNNY     82  77  83 VRB3      29.96S HX  91
$$

SKY/WX REPORTED AS FAIR MEANS FEW OR NO CLOUDS BELOW
12 THOUSAND FEET.





USA.gov is the U.S. government's official web portal to all federal, state and local government web resources and services.